WFO RAH Logo

WFO RAH Text Data

RWRRAH
NORTH CAROLINA WEATHER ROUNDUP
NATIONAL WEATHER SERVICE RALEIGH NC
400 PM EST THU JAN 18 2007

NOTE: "FAIR" INDICATES FEW OR NO CLOUDS BELOW 12,000 FEET WITH NO
SIGNIFICANT WEATHER AND/OR OBSTRUCTIONS TO VISIBILITY.

NCZ001-053-055-056-065-067-182200-
WESTERN NORTH CAROLINA
  
CITY           SKY/WX    TMP DP  RH WIND       PRES   REMARKS
ASHEVILLE      CLOUDY    34  33  96 S6        30.25F FOG     WCI  29  
JEFFERSON      CLOUDY    34  30  86 CALM      30.22S                  
MORGANTON      CLOUDY    30  30 100 CALM      30.34F FOG              
HICKORY        CLOUDY    31  29  92 NW3       30.31F FOG              
RUTHERFORDTON  CLOUDY    34  30  86 CALM      30.30F FOG              
MOUNT AIRY     DRIZZLE   28  27  93 CALM      30.29F                  
$$
 
NCZ021-022-025-041-071-084-088-182200-
CENTRAL NORTH CAROLINA
  
CITY           SKY/WX    TMP DP  RH WIND       PRES   REMARKS
CHARLOTTE      DRIZZLE   32  31  96 N8        30.34S FOG     WCI  25  
GREENSBORO     FRZ RAIN  31  29  92 N5        30.33F FOG     WCI  26  
WINSTON-SALEM  FRZ RAIN  30  28  93 CALM      30.32F FOG              
RALEIGH-DURHAM LGT RAIN  33  32  96 N8        30.34F VSB 1   WCI  26  
FORT BRAGG     DRIZZLE   34  34 100 N5        30.32F FOG     WCI  30  
FAYETTEVILLE   LGT RAIN  36  34  92 NE10      30.31F FOG     WCI  28  
$$
 
NCZ011-015-027-028-043-044-047-080-103-182200-
NORTHEASTERN NORTH CAROLINA
  
CITY           SKY/WX    TMP DP  RH WIND       PRES   REMARKS
ROANOKE RAPIDS LGT RAIN  35  33  92 N5        30.35F FOG     WCI  31  
ROCKY MT-WILSO LGT RAIN  36  35  96 N9        30.33F FOG     WCI  29  
GREENVILLE     CLOUDY    39  36  87 N3        30.32F FOG              
WASHINGTON     DRIZZLE   43  37  81 N5        30.32F                  
ELIZABETH CITY CLOUDY    43  41  93 N6        30.32F FOG              
MANTEO         CLOUDY    52  46  82 N7        30.31F FOG              
CAPE HATTERAS  HVY RAIN  51  50  96 N8        30.29F FOG              
$$
 
NCZ078-087-090-091-093-098-101-182200-
SOUTHEASTERN NORTH CAROLINA
  
CITY           SKY/WX    TMP DP  RH WIND       PRES   REMARKS
LUMBERTON      LGT RAIN  37  36  96 N8        30.30F FOG     WCI  31  
KINSTON        DRIZZLE   39  37  93 N3        30.32F                  
KENANSVILLE    RAIN      41  41 100 N5        30.31S                  
NEW BERN       LGT RAIN  42  40  92 N5        30.32F FOG              
CHERRY POINT   LGT RAIN  44  43  96 N9        30.31F FOG              
BEAUFORT       LGT RAIN  46  45  96 NE10      30.29F FOG              
JACKSONVILLE   RAIN      43  41  93 N9        30.30F FOG              
WILMINGTON     LGT RAIN  44  41  89 NE8       30.27F FOG              
$$